User: anonymous   Login
Location: Washington
(38.8950°N, 77.0370°W)
Time: 03:05:32
(UTC-04:00)
Language:

IDEFIX/ARIANE 42P - Orbit

View from above orbital plane
View from above orbital plane
View from above satellite
View from above satellite

Ground track
Ground track

The orbit data is extracted from the following two-line orbital elements,

1 27422U 02021B   18109.92887859 -.00000038 +00000-0 +88323-6 0  9999
2 27422 098.2532 098.5571 0013312 051.3345 308.9027 14.29260437832385
Epoch (UTC): 19 April 2018 22:17:35
Eccentricity: 0.0013312
inclination: 98.2532°
perigee height: 784 km
apogee height: 804 km
right ascension of ascending node: 98.5571°
argument of perigee: 51.3345°
revolutions per day: 14.29260437
mean anomaly at epoch: 308.9027°
orbit number at epoch: 83238

The dashed part of the orbit path shows where the satellite is in the earth's shadow,  

DLR